Year,Month,Day,Hour,Minute,Value (Times are PST for temperature in C)
2013,07,12,00,00,15.70
2013,07,12,00,01,15.60
2013,07,12,00,02,15.60
2013,07,12,00,03,15.60
2013,07,12,00,04,15.60
2013,07,12,00,05,15.60
2013,07,12,00,06,15.60
2013,07,12,00,07,15.60
2013,07,12,00,08,15.50
2013,07,12,00,09,15.50
2013,07,12,00,10,15.50
2013,07,12,00,11,15.50
2013,07,12,00,12,15.50
2013,07,12,00,13,15.50
2013,07,12,00,14,15.50
2013,07,12,00,15,15.50
2013,07,12,00,16,15.40
2013,07,12,00,17,15.40
2013,07,12,00,18,15.40
2013,07,12,00,19,15.40
2013,07,12,00,20,15.40
2013,07,12,00,21,15.40
2013,07,12,00,22,15.40
2013,07,12,00,23,15.40
2013,07,12,00,24,15.30
2013,07,12,00,25,15.30
2013,07,12,00,26,15.30
2013,07,12,00,27,15.30
2013,07,12,00,28,15.30
2013,07,12,00,29,15.30
2013,07,12,00,30,15.30
2013,07,12,00,31,15.30
2013,07,12,00,32,15.40
2013,07,12,00,33,15.40
2013,07,12,00,34,15.40
2013,07,12,00,35,15.40
2013,07,12,00,36,15.40
2013,07,12,00,37,15.40
2013,07,12,00,38,15.40
2013,07,12,00,39,15.40
2013,07,12,00,40,15.40
2013,07,12,00,41,15.40
2013,07,12,00,42,15.40
2013,07,12,00,43,15.40
2013,07,12,00,44,15.40
2013,07,12,00,45,15.40
2013,07,12,00,46,15.40
2013,07,12,00,47,15.40
2013,07,12,00,48,15.30
2013,07,12,00,49,15.30
2013,07,12,00,50,15.30
2013,07,12,00,51,15.30
2013,07,12,00,52,15.30
2013,07,12,00,53,15.30
2013,07,12,00,54,15.30
2013,07,12,00,55,15.30
2013,07,12,00,56,15.30
2013,07,12,00,57,15.30
2013,07,12,00,58,15.20
2013,07,12,00,59,15.20
2013,07,12,01,00,15.20
2013,07,12,01,01,15.20
2013,07,12,01,02,15.10
2013,07,12,01,03,15.10
2013,07,12,01,04,15.10
2013,07,12,01,05,15.00
2013,07,12,01,06,15.00
2013,07,12,01,07,15.00
2013,07,12,01,08,14.90
2013,07,12,01,09,14.90
2013,07,12,01,10,14.80
2013,07,12,01,11,14.80
2013,07,12,01,12,14.80
2013,07,12,01,13,14.80
2013,07,12,01,14,14.80
2013,07,12,01,15,14.70
2013,07,12,01,16,14.70
2013,07,12,01,17,14.70
2013,07,12,01,18,14.60
2013,07,12,01,19,14.60
2013,07,12,01,20,14.60
2013,07,12,01,21,14.60
2013,07,12,01,22,14.50
2013,07,12,01,23,14.50
2013,07,12,01,24,14.40
2013,07,12,01,25,14.40
2013,07,12,01,26,14.30
2013,07,12,01,27,14.30
2013,07,12,01,28,14.30
2013,07,12,01,29,14.20
2013,07,12,01,30,14.20
2013,07,12,01,31,14.20
2013,07,12,01,32,14.20
2013,07,12,01,33,14.10
2013,07,12,01,34,14.10
2013,07,12,01,35,14.10
2013,07,12,01,36,14.10
2013,07,12,01,37,14.00
2013,07,12,01,38,14.00
2013,07,12,01,39,14.00
2013,07,12,01,40,13.90
2013,07,12,01,41,13.90
2013,07,12,01,42,13.90
2013,07,12,01,43,13.90
2013,07,12,01,44,13.90
2013,07,12,01,45,13.90
2013,07,12,01,46,13.90
2013,07,12,01,47,13.90
2013,07,12,01,48,13.80
2013,07,12,01,49,13.80
2013,07,12,01,50,13.80
2013,07,12,01,51,13.80
2013,07,12,01,52,13.80
2013,07,12,01,53,13.80
2013,07,12,01,54,13.80
2013,07,12,01,55,13.80
2013,07,12,01,56,13.90
2013,07,12,01,57,13.90
2013,07,12,01,58,13.90
2013,07,12,01,59,13.90
2013,07,12,02,00,14.00
2013,07,12,02,01,14.00
2013,07,12,02,02,14.10
2013,07,12,02,03,14.10
2013,07,12,02,04,14.20
2013,07,12,02,05,14.20
2013,07,12,02,06,14.30
2013,07,12,02,07,14.30
2013,07,12,02,08,14.30
2013,07,12,02,09,14.40
2013,07,12,02,10,14.40
2013,07,12,02,11,14.40
2013,07,12,02,12,14.40
2013,07,12,02,13,14.40
2013,07,12,02,14,14.40
2013,07,12,02,15,14.40
2013,07,12,02,16,14.50
2013,07,12,02,17,14.50
2013,07,12,02,18,14.50
2013,07,12,02,19,14.50
2013,07,12,02,20,14.50
2013,07,12,02,21,14.50
2013,07,12,02,22,14.50
2013,07,12,02,23,14.50
2013,07,12,02,24,14.40
2013,07,12,02,25,14.40
2013,07,12,02,26,14.40
2013,07,12,02,27,14.40
2013,07,12,02,28,14.40
2013,07,12,02,29,14.40
2013,07,12,02,30,14.40
2013,07,12,02,31,14.40
2013,07,12,02,32,14.40
2013,07,12,02,33,14.40
2013,07,12,02,34,14.40
2013,07,12,02,35,14.40
2013,07,12,02,36,14.50
2013,07,12,02,37,14.50
2013,07,12,02,38,14.50
2013,07,12,02,39,14.50
2013,07,12,02,40,14.50
2013,07,12,02,41,14.50
2013,07,12,02,42,14.50
2013,07,12,02,43,14.60
2013,07,12,02,44,14.60
2013,07,12,02,45,14.60
2013,07,12,02,46,14.60
2013,07,12,02,47,14.60
2013,07,12,02,48,14.60
2013,07,12,02,49,14.60
2013,07,12,02,50,14.60
2013,07,12,02,51,14.60
2013,07,12,02,52,14.60
2013,07,12,02,53,14.50
2013,07,12,02,54,14.50
2013,07,12,02,55,14.60
2013,07,12,02,56,14.60
2013,07,12,02,57,14.60
2013,07,12,02,58,14.50
2013,07,12,02,59,14.50
2013,07,12,03,00,14.50
2013,07,12,03,01,14.50
2013,07,12,03,02,14.50
2013,07,12,03,03,14.50
2013,07,12,03,04,14.40
2013,07,12,03,05,14.40
2013,07,12,03,06,14.40
2013,07,12,03,07,14.40
2013,07,12,03,08,14.40
2013,07,12,03,09,14.30
2013,07,12,03,10,14.30
2013,07,12,03,11,14.30
2013,07,12,03,12,14.30
2013,07,12,03,13,14.20
2013,07,12,03,14,14.20
2013,07,12,03,15,14.20
2013,07,12,03,16,14.10
2013,07,12,03,17,14.10
2013,07,12,03,18,14.10
2013,07,12,03,19,14.10
2013,07,12,03,20,14.00
2013,07,12,03,21,13.90
2013,07,12,03,22,13.90
2013,07,12,03,23,13.90
2013,07,12,03,24,13.80
2013,07,12,03,25,13.80
2013,07,12,03,26,13.70
2013,07,12,03,27,13.70
2013,07,12,03,28,13.70
2013,07,12,03,29,13.60
2013,07,12,03,30,13.60
2013,07,12,03,31,13.50
2013,07,12,03,32,13.50
2013,07,12,03,33,13.40
2013,07,12,03,34,13.40
2013,07,12,03,35,13.40
2013,07,12,03,36,13.30
2013,07,12,03,37,13.30
2013,07,12,03,38,13.30
2013,07,12,03,39,13.20
2013,07,12,03,40,13.20
2013,07,12,03,41,13.10
2013,07,12,03,42,13.10
2013,07,12,03,43,13.10
2013,07,12,03,44,13.00
2013,07,12,03,45,13.00
2013,07,12,03,46,12.90
2013,07,12,03,47,12.90
2013,07,12,03,48,12.90
2013,07,12,03,49,12.80
2013,07,12,03,50,12.80
2013,07,12,03,51,12.80
2013,07,12,03,52,12.80
2013,07,12,03,53,12.80
2013,07,12,03,54,12.80
2013,07,12,03,55,12.70
2013,07,12,03,56,12.70
2013,07,12,03,57,12.70
2013,07,12,03,58,12.70
2013,07,12,03,59,12.70
2013,07,12,04,00,12.60
2013,07,12,04,01,12.60
2013,07,12,04,02,12.60
2013,07,12,04,03,12.60
2013,07,12,04,04,12.60
2013,07,12,04,05,12.50
2013,07,12,04,06,12.50
2013,07,12,04,07,12.50
2013,07,12,04,08,12.50
2013,07,12,04,09,12.40
2013,07,12,04,10,12.40
2013,07,12,04,11,12.40
2013,07,12,04,12,12.40
2013,07,12,04,13,12.40
2013,07,12,04,14,12.40
2013,07,12,04,15,12.30
2013,07,12,04,16,12.30
2013,07,12,04,17,12.30
2013,07,12,04,18,12.30
2013,07,12,04,19,12.20
2013,07,12,04,20,12.20
2013,07,12,04,21,12.20
2013,07,12,04,22,12.20
2013,07,12,04,23,12.20
2013,07,12,04,24,12.10
2013,07,12,04,25,12.10
2013,07,12,04,26,12.10
2013,07,12,04,27,12.10
2013,07,12,04,28,12.00
2013,07,12,04,29,12.00
2013,07,12,04,30,12.00
2013,07,12,04,31,11.90
2013,07,12,04,32,11.90
2013,07,12,04,33,11.90
2013,07,12,04,34,11.90
2013,07,12,04,35,11.90
2013,07,12,04,36,11.90
2013,07,12,04,37,11.90
2013,07,12,04,38,11.80
2013,07,12,04,39,11.80
2013,07,12,04,40,11.80
2013,07,12,04,41,11.80
2013,07,12,04,42,11.80
2013,07,12,04,43,11.80
2013,07,12,04,44,11.70
2013,07,12,04,45,11.70
2013,07,12,04,46,11.70
2013,07,12,04,47,11.70
2013,07,12,04,48,11.70
2013,07,12,04,49,11.70
2013,07,12,04,50,11.60
2013,07,12,04,51,11.60
2013,07,12,04,52,11.60
2013,07,12,04,53,11.60
2013,07,12,04,54,11.60
2013,07,12,04,55,11.60
2013,07,12,04,56,11.50
2013,07,12,04,57,11.50
2013,07,12,04,58,11.50
2013,07,12,04,59,11.40
2013,07,12,05,00,11.40
2013,07,12,05,01,11.40
2013,07,12,05,02,11.40
2013,07,12,05,03,11.40
2013,07,12,05,04,11.40
2013,07,12,05,05,11.40
2013,07,12,05,06,11.30
2013,07,12,05,07,11.30
2013,07,12,05,08,11.30
2013,07,12,05,09,11.30
2013,07,12,05,10,11.30
2013,07,12,05,11,11.30
2013,07,12,05,12,11.30
2013,07,12,05,13,11.30
2013,07,12,05,14,11.30
2013,07,12,05,15,11.30
2013,07,12,05,16,11.30
2013,07,12,05,17,11.30
2013,07,12,05,18,11.30
2013,07,12,05,19,11.30
2013,07,12,05,20,11.30
2013,07,12,05,21,11.20
2013,07,12,05,22,11.20
2013,07,12,05,23,11.20
2013,07,12,05,24,11.20
2013,07,12,05,25,11.20
2013,07,12,05,26,11.20
2013,07,12,05,27,11.20
2013,07,12,05,28,11.20
2013,07,12,05,29,11.20
2013,07,12,05,30,11.20
2013,07,12,05,31,11.20
2013,07,12,05,32,11.20
2013,07,12,05,33,11.20
2013,07,12,05,34,11.20
2013,07,12,05,35,11.20
2013,07,12,05,36,11.10
2013,07,12,05,37,11.10
2013,07,12,05,38,11.10
2013,07,12,05,39,11.10
2013,07,12,05,40,11.10
2013,07,12,05,41,11.10
2013,07,12,05,42,11.10
2013,07,12,05,43,11.10
2013,07,12,05,44,11.10
2013,07,12,05,45,11.10
2013,07,12,05,46,11.00
2013,07,12,05,47,11.00
2013,07,12,05,48,11.00
2013,07,12,05,49,11.00
2013,07,12,05,50,11.00
2013,07,12,05,51,11.00
2013,07,12,05,52,10.90
2013,07,12,05,53,10.90
2013,07,12,05,54,10.90
2013,07,12,05,55,10.90
2013,07,12,05,56,10.90
2013,07,12,05,57,10.90
2013,07,12,05,58,10.90
2013,07,12,05,59,10.90
2013,07,12,06,00,10.90
2013,07,12,06,01,10.90
2013,07,12,06,02,10.90
2013,07,12,06,03,10.90
2013,07,12,06,04,10.90
2013,07,12,06,05,10.90
2013,07,12,06,06,10.90
2013,07,12,06,07,11.00
2013,07,12,06,08,11.00
2013,07,12,06,09,11.00
2013,07,12,06,10,11.00
2013,07,12,06,11,11.10
2013,07,12,06,12,11.10
2013,07,12,06,13,11.10
2013,07,12,06,14,11.10
2013,07,12,06,15,11.10
2013,07,12,06,16,11.10
2013,07,12,06,17,11.20
2013,07,12,06,18,11.20
2013,07,12,06,19,11.20
2013,07,12,06,20,11.20
2013,07,12,06,21,11.20
2013,07,12,06,22,11.20
2013,07,12,06,23,11.20
2013,07,12,06,24,11.20
2013,07,12,06,25,11.30
2013,07,12,06,26,11.30
2013,07,12,06,27,11.30
2013,07,12,06,28,11.30
2013,07,12,06,29,11.30
2013,07,12,06,30,11.30
2013,07,12,06,31,11.30
2013,07,12,06,32,11.30
2013,07,12,06,33,11.30
2013,07,12,06,34,11.30
2013,07,12,06,35,11.40
2013,07,12,06,36,11.40
2013,07,12,06,37,11.40
2013,07,12,06,38,11.40
2013,07,12,06,39,11.40
2013,07,12,06,40,11.40
2013,07,12,06,41,11.40
2013,07,12,06,42,11.40
2013,07,12,06,43,11.40
2013,07,12,06,44,11.50
2013,07,12,06,45,11.50
2013,07,12,06,46,11.50
2013,07,12,06,47,11.50
2013,07,12,06,48,11.50
2013,07,12,06,49,11.50
2013,07,12,06,50,11.50
2013,07,12,06,51,11.50
2013,07,12,06,52,11.50
2013,07,12,06,53,11.50
2013,07,12,06,54,11.50
2013,07,12,06,55,11.60
2013,07,12,06,56,11.60
2013,07,12,06,57,11.60
2013,07,12,06,58,11.60
2013,07,12,06,59,11.60
2013,07,12,07,00,11.70
2013,07,12,07,01,11.70
2013,07,12,07,02,11.80
2013,07,12,07,03,11.80
2013,07,12,07,04,11.90
2013,07,12,07,05,12.00
2013,07,12,07,06,12.10
2013,07,12,07,07,12.20
2013,07,12,07,08,12.30
2013,07,12,07,09,12.30
2013,07,12,07,10,12.40
2013,07,12,07,11,12.60
2013,07,12,07,12,12.70
2013,07,12,07,13,12.80
2013,07,12,07,14,12.90
2013,07,12,07,15,12.90
2013,07,12,07,16,13.00
2013,07,12,07,17,13.10
2013,07,12,07,18,13.20
2013,07,12,07,19,13.20
2013,07,12,07,20,13.30
2013,07,12,07,21,13.30
2013,07,12,07,22,13.40
2013,07,12,07,23,13.50
2013,07,12,07,24,13.50
2013,07,12,07,25,13.60
2013,07,12,07,26,13.70
2013,07,12,07,27,13.70
2013,07,12,07,28,13.80
2013,07,12,07,29,13.80
2013,07,12,07,30,13.80
2013,07,12,07,31,13.90
2013,07,12,07,32,14.00
2013,07,12,07,33,14.00
2013,07,12,07,34,14.10
2013,07,12,07,35,14.10
2013,07,12,07,36,14.20
2013,07,12,07,37,14.20
2013,07,12,07,38,14.30
2013,07,12,07,39,14.30
2013,07,12,07,40,14.40
2013,07,12,07,41,14.40
2013,07,12,07,42,14.50
2013,07,12,07,43,14.50
2013,07,12,07,44,14.60
2013,07,12,07,45,14.60
2013,07,12,07,46,14.60
2013,07,12,07,47,14.70
2013,07,12,07,48,14.70
2013,07,12,07,49,14.80
2013,07,12,07,50,14.80
2013,07,12,07,51,14.80
2013,07,12,07,52,14.90
2013,07,12,07,53,14.90
2013,07,12,07,54,14.90
2013,07,12,07,55,14.90
2013,07,12,07,56,14.90
2013,07,12,07,57,14.90
2013,07,12,07,58,14.90
2013,07,12,07,59,14.90
2013,07,12,08,00,14.90
2013,07,12,08,01,14.80
2013,07,12,08,02,14.80
2013,07,12,08,03,14.80
2013,07,12,08,04,14.80
2013,07,12,08,05,14.80
2013,07,12,08,06,14.80
2013,07,12,08,07,14.80
2013,07,12,08,08,14.80
2013,07,12,08,09,14.80
2013,07,12,08,10,14.70
2013,07,12,08,11,14.70
2013,07,12,08,12,14.70
2013,07,12,08,13,14.70
2013,07,12,08,14,14.70
2013,07,12,08,15,14.70
2013,07,12,08,16,14.70
2013,07,12,08,17,14.70
2013,07,12,08,18,14.70
2013,07,12,08,19,14.70
2013,07,12,08,20,14.60
2013,07,12,08,21,14.60
2013,07,12,08,22,14.60
2013,07,12,08,23,14.60
2013,07,12,08,24,14.60
2013,07,12,08,25,14.60
2013,07,12,08,26,14.60
2013,07,12,08,27,14.60
2013,07,12,08,28,14.60
2013,07,12,08,29,14.60
2013,07,12,08,30,14.60
2013,07,12,08,31,14.60
2013,07,12,08,32,14.60
2013,07,12,08,33,14.60
2013,07,12,08,34,14.60
2013,07,12,08,35,14.70
2013,07,12,08,36,14.70
2013,07,12,08,37,14.70
2013,07,12,08,38,14.80
2013,07,12,08,39,14.80
2013,07,12,08,40,14.90
2013,07,12,08,41,15.00
2013,07,12,08,42,15.10
2013,07,12,08,43,15.10
2013,07,12,08,44,15.10
2013,07,12,08,45,15.20
2013,07,12,08,46,15.20
2013,07,12,08,47,15.20
2013,07,12,08,48,15.20
2013,07,12,08,49,15.20
2013,07,12,08,50,15.20
2013,07,12,08,51,15.20
2013,07,12,08,52,15.10
2013,07,12,08,53,15.20
2013,07,12,08,54,15.20
2013,07,12,08,55,15.20
2013,07,12,08,56,15.20
2013,07,12,08,57,15.20
2013,07,12,08,58,15.20
2013,07,12,08,59,15.20
2013,07,12,09,00,15.30
2013,07,12,09,01,15.30
2013,07,12,09,02,15.40
2013,07,12,09,03,15.50
2013,07,12,09,04,15.50
2013,07,12,09,05,15.50
2013,07,12,09,06,15.60
2013,07,12,09,07,15.60
2013,07,12,09,08,15.60
2013,07,12,09,09,15.70
2013,07,12,09,10,15.70
2013,07,12,09,11,15.60
2013,07,12,09,12,15.50
2013,07,12,09,13,15.50
2013,07,12,09,14,15.40
2013,07,12,09,15,15.40
2013,07,12,09,16,15.40
2013,07,12,09,17,15.40
2013,07,12,09,18,15.50
2013,07,12,09,19,15.50
2013,07,12,09,20,15.60
2013,07,12,09,21,15.70
2013,07,12,09,22,15.70
2013,07,12,09,23,15.80
2013,07,12,09,24,15.80
2013,07,12,09,25,15.80
2013,07,12,09,26,15.80
2013,07,12,09,27,15.80
2013,07,12,09,28,15.80
2013,07,12,09,29,15.90
2013,07,12,09,30,15.90
2013,07,12,09,31,16.00
2013,07,12,09,32,16.00
2013,07,12,09,33,16.10
2013,07,12,09,34,16.10
2013,07,12,09,35,16.20
2013,07,12,09,36,16.20
2013,07,12,09,37,16.20
2013,07,12,09,38,16.20
2013,07,12,09,39,16.10
2013,07,12,09,40,16.10
2013,07,12,09,41,15.90
2013,07,12,09,42,15.90
2013,07,12,09,43,15.80
2013,07,12,09,44,15.70
2013,07,12,09,45,15.60
2013,07,12,09,46,15.60
2013,07,12,09,47,15.70
2013,07,12,09,48,15.70
2013,07,12,09,49,15.70
2013,07,12,09,50,15.70
2013,07,12,09,51,15.70
2013,07,12,09,52,15.70
2013,07,12,09,53,15.80
2013,07,12,09,54,15.80
2013,07,12,09,55,15.80
2013,07,12,09,56,15.80
2013,07,12,09,57,15.80
2013,07,12,09,58,15.80
2013,07,12,09,59,15.80
2013,07,12,10,00,15.90
2013,07,12,10,01,15.90
2013,07,12,10,02,15.90
2013,07,12,10,03,15.90
2013,07,12,10,04,16.00
2013,07,12,10,05,16.00
2013,07,12,10,06,16.00
2013,07,12,10,07,16.00
2013,07,12,10,08,15.90
2013,07,12,10,09,15.90
2013,07,12,10,10,15.90
2013,07,12,10,11,15.90
2013,07,12,10,12,15.90
2013,07,12,10,13,15.90
2013,07,12,10,14,15.90
2013,07,12,10,15,15.90
2013,07,12,10,16,15.90
2013,07,12,10,17,16.00
2013,07,12,10,18,16.00
2013,07,12,10,19,16.00
2013,07,12,10,20,16.00
2013,07,12,10,21,16.00
2013,07,12,10,22,16.00
2013,07,12,10,23,16.00
2013,07,12,10,24,16.00
2013,07,12,10,25,15.90
2013,07,12,10,26,15.90
2013,07,12,10,27,15.90
2013,07,12,10,28,15.90
2013,07,12,10,29,16.00
2013,07,12,10,30,16.00
2013,07,12,10,31,16.00
2013,07,12,10,32,16.10
2013,07,12,10,33,16.10
2013,07,12,10,34,16.20
2013,07,12,10,35,16.30
2013,07,12,10,36,16.30
2013,07,12,10,37,16.30
2013,07,12,10,38,16.30
2013,07,12,10,39,16.20
2013,07,12,10,40,16.20
2013,07,12,10,41,16.20
2013,07,12,10,42,16.20
2013,07,12,10,43,16.20
2013,07,12,10,44,16.20
2013,07,12,10,45,16.30
2013,07,12,10,46,16.40
2013,07,12,10,47,16.40
2013,07,12,10,48,16.40
2013,07,12,10,49,16.50
2013,07,12,10,50,16.50
2013,07,12,10,51,16.60
2013,07,12,10,52,16.60
2013,07,12,10,53,16.70
2013,07,12,10,54,16.70
2013,07,12,10,55,16.80
2013,07,12,10,56,16.80
2013,07,12,10,57,16.90
2013,07,12,10,58,16.90
2013,07,12,10,59,16.80
2013,07,12,11,00,16.80
2013,07,12,11,01,16.70
2013,07,12,11,02,16.60
2013,07,12,11,03,16.50
2013,07,12,11,04,16.40
2013,07,12,11,05,16.40
2013,07,12,11,06,16.30
2013,07,12,11,07,16.30
2013,07,12,11,08,16.30
2013,07,12,11,09,16.20
2013,07,12,11,10,16.20
2013,07,12,11,11,16.10
2013,07,12,11,12,16.10
2013,07,12,11,13,16.10
2013,07,12,11,14,16.10
2013,07,12,11,15,16.10
2013,07,12,11,16,16.10
2013,07,12,11,17,16.10
2013,07,12,11,18,16.20
2013,07,12,11,19,16.20
2013,07,12,11,20,16.30
2013,07,12,11,21,16.40
2013,07,12,11,22,16.50
2013,07,12,11,23,16.60
2013,07,12,11,24,16.60
2013,07,12,11,25,16.70
2013,07,12,11,26,16.80
2013,07,12,11,27,16.70
2013,07,12,11,28,16.70
2013,07,12,11,29,16.70
2013,07,12,11,30,16.60
2013,07,12,11,31,16.70
2013,07,12,11,32,16.80
2013,07,12,11,33,16.80
2013,07,12,11,34,16.90
2013,07,12,11,35,16.90
2013,07,12,11,36,17.00
2013,07,12,11,37,17.10
2013,07,12,11,38,17.10
2013,07,12,11,39,17.10
2013,07,12,11,40,17.10
2013,07,12,11,41,17.20
2013,07,12,11,42,17.20
2013,07,12,11,43,17.20
2013,07,12,11,44,17.20
2013,07,12,11,45,17.30
2013,07,12,11,46,17.30
2013,07,12,11,47,17.30
2013,07,12,11,48,17.30
2013,07,12,11,49,17.40
2013,07,12,11,50,17.50
2013,07,12,11,51,17.60
2013,07,12,11,52,17.70
2013,07,12,11,53,17.80
2013,07,12,11,54,17.80
2013,07,12,11,55,17.80
2013,07,12,11,56,17.70
2013,07,12,11,57,17.70
2013,07,12,11,58,17.70
2013,07,12,11,59,17.70
2013,07,12,12,00,17.70
2013,07,12,12,01,17.60
2013,07,12,12,02,17.60
2013,07,12,12,03,17.70
2013,07,12,12,04,17.50
2013,07,12,12,05,17.40
2013,07,12,12,06,17.30
2013,07,12,12,07,17.30
2013,07,12,12,08,17.20
2013,07,12,12,09,17.20
2013,07,12,12,10,17.20
2013,07,12,12,11,17.10
2013,07,12,12,12,17.10
2013,07,12,12,13,17.20
2013,07,12,12,14,17.40
2013,07,12,12,15,17.60
2013,07,12,12,16,17.80
2013,07,12,12,17,17.90
2013,07,12,12,18,18.00
2013,07,12,12,19,18.00
2013,07,12,12,20,18.00
2013,07,12,12,21,17.90
2013,07,12,12,22,17.80
2013,07,12,12,23,17.70
2013,07,12,12,24,17.70
2013,07,12,12,25,17.70
2013,07,12,12,26,17.70
2013,07,12,12,27,17.70
2013,07,12,12,28,17.70
2013,07,12,12,29,17.70
2013,07,12,12,30,17.80
2013,07,12,12,31,17.90
2013,07,12,12,32,18.00
2013,07,12,12,33,18.20
2013,07,12,12,34,18.30
2013,07,12,12,35,18.40
2013,07,12,12,36,18.40
2013,07,12,12,37,18.50
2013,07,12,12,38,18.50
2013,07,12,12,39,18.50
2013,07,12,12,40,18.60
2013,07,12,12,41,18.60
2013,07,12,12,42,18.60
2013,07,12,12,43,18.50
2013,07,12,12,44,18.40
2013,07,12,12,45,18.30
2013,07,12,12,46,18.20
2013,07,12,12,47,18.10
2013,07,12,12,48,18.10
2013,07,12,12,49,18.20
2013,07,12,12,50,18.30
2013,07,12,12,51,18.40
2013,07,12,12,52,18.50
2013,07,12,12,53,18.40
2013,07,12,12,54,18.40
2013,07,12,12,55,18.30
2013,07,12,12,56,18.20
2013,07,12,12,57,18.00
2013,07,12,12,58,17.90
2013,07,12,12,59,17.90
2013,07,12,13,00,17.90
2013,07,12,13,01,17.90
2013,07,12,13,02,18.00
2013,07,12,13,03,18.00
2013,07,12,13,04,18.00
2013,07,12,13,05,18.10
2013,07,12,13,06,18.20
2013,07,12,13,07,18.30
2013,07,12,13,08,18.40
2013,07,12,13,09,18.50
2013,07,12,13,10,18.60
2013,07,12,13,11,18.60
2013,07,12,13,12,18.70
2013,07,12,13,13,18.70
2013,07,12,13,14,18.70
2013,07,12,13,15,18.70
2013,07,12,13,16,18.80
2013,07,12,13,17,18.90
2013,07,12,13,18,18.90
2013,07,12,13,19,19.00
2013,07,12,13,20,19.10
2013,07,12,13,21,19.00
2013,07,12,13,22,19.00
2013,07,12,13,23,18.90
2013,07,12,13,24,18.90
2013,07,12,13,25,18.80
2013,07,12,13,26,18.80
2013,07,12,13,27,18.80
2013,07,12,13,28,18.80
2013,07,12,13,29,18.80
2013,07,12,13,30,18.80
2013,07,12,13,31,18.90
2013,07,12,13,32,18.90
2013,07,12,13,33,19.00
2013,07,12,13,34,19.00
2013,07,12,13,35,19.10
2013,07,12,13,36,19.10
2013,07,12,13,37,19.00
2013,07,12,13,38,18.80
2013,07,12,13,39,18.80
2013,07,12,13,40,18.80
2013,07,12,13,41,18.80
2013,07,12,13,42,18.80
2013,07,12,13,43,18.90
2013,07,12,13,44,19.00
2013,07,12,13,45,19.10
2013,07,12,13,46,19.20
2013,07,12,13,47,19.30
2013,07,12,13,48,19.30
2013,07,12,13,49,19.30
2013,07,12,13,50,19.30
2013,07,12,13,51,19.30
2013,07,12,13,52,19.30
2013,07,12,13,53,19.30
2013,07,12,13,54,19.30
2013,07,12,13,55,19.20
2013,07,12,13,56,19.30
2013,07,12,13,57,19.40
2013,07,12,13,58,19.50
2013,07,12,13,59,19.50
2013,07,12,14,00,19.50
2013,07,12,14,01,19.50
2013,07,12,14,02,19.40
2013,07,12,14,03,19.50
2013,07,12,14,04,19.50
2013,07,12,14,05,19.40
2013,07,12,14,06,19.40
2013,07,12,14,07,19.40
2013,07,12,14,08,19.60
2013,07,12,14,09,19.80
2013,07,12,14,10,19.90
2013,07,12,14,11,19.90
2013,07,12,14,12,20.00
2013,07,12,14,13,19.90
2013,07,12,14,14,19.90
2013,07,12,14,15,19.80
2013,07,12,14,16,19.70
2013,07,12,14,17,19.60
2013,07,12,14,18,19.60
2013,07,12,14,19,19.70
2013,07,12,14,20,19.70
2013,07,12,14,21,19.70
2013,07,12,14,22,19.70
2013,07,12,14,23,19.80
2013,07,12,14,24,19.90
2013,07,12,14,25,20.00
2013,07,12,14,26,20.10
2013,07,12,14,27,20.20
2013,07,12,14,28,20.20
2013,07,12,14,29,20.30
2013,07,12,14,30,20.30
2013,07,12,14,31,20.30
2013,07,12,14,32,20.40
2013,07,12,14,33,20.40
2013,07,12,14,34,20.40
2013,07,12,14,35,20.40
2013,07,12,14,36,20.40
2013,07,12,14,37,20.40
2013,07,12,14,38,20.40
2013,07,12,14,39,20.30
2013,07,12,14,40,20.30
2013,07,12,14,41,20.30
2013,07,12,14,42,20.30
2013,07,12,14,43,20.40
2013,07,12,14,44,20.50
2013,07,12,14,45,20.60
2013,07,12,14,46,20.70
2013,07,12,14,47,20.80
2013,07,12,14,48,20.90
2013,07,12,14,49,20.90
2013,07,12,14,50,20.90
2013,07,12,14,51,20.90
2013,07,12,14,52,20.90
2013,07,12,14,53,20.80
2013,07,12,14,54,20.90
2013,07,12,14,55,20.90
2013,07,12,14,56,21.00
2013,07,12,14,57,21.10
2013,07,12,14,58,21.10
2013,07,12,14,59,21.10
2013,07,12,15,00,21.10
2013,07,12,15,01,21.10
2013,07,12,15,02,21.00
2013,07,12,15,03,20.90
2013,07,12,15,04,20.90
2013,07,12,15,05,20.90
2013,07,12,15,06,20.80
2013,07,12,15,07,20.80
2013,07,12,15,08,20.90
2013,07,12,15,09,20.90
2013,07,12,15,10,21.00
2013,07,12,15,11,21.10
2013,07,12,15,12,21.20
2013,07,12,15,13,21.20
2013,07,12,15,14,21.20
2013,07,12,15,15,21.30
2013,07,12,15,16,21.30
2013,07,12,15,17,21.30
2013,07,12,15,18,21.40
2013,07,12,15,19,21.40
2013,07,12,15,20,21.40
2013,07,12,15,21,21.40
2013,07,12,15,22,21.30
2013,07,12,15,23,21.20
2013,07,12,15,24,21.20
2013,07,12,15,25,21.20
2013,07,12,15,26,21.20
2013,07,12,15,27,21.10
2013,07,12,15,28,20.90
2013,07,12,15,29,20.80
2013,07,12,15,30,20.70
2013,07,12,15,31,20.70
2013,07,12,15,32,20.80
2013,07,12,15,33,20.90
2013,07,12,15,34,20.80
2013,07,12,15,35,20.90
2013,07,12,15,36,20.80
2013,07,12,15,37,20.70
2013,07,12,15,38,20.70
2013,07,12,15,39,20.80
2013,07,12,15,40,20.90
2013,07,12,15,41,20.90
2013,07,12,15,42,20.90
2013,07,12,15,43,20.90
2013,07,12,15,44,20.90
2013,07,12,15,45,20.90
2013,07,12,15,46,21.00
2013,07,12,15,47,21.00
2013,07,12,15,48,21.10
2013,07,12,15,49,21.10
2013,07,12,15,50,21.10
2013,07,12,15,51,21.10
2013,07,12,15,52,21.10
2013,07,12,15,53,21.00
2013,07,12,15,54,20.90
2013,07,12,15,55,20.80
2013,07,12,15,56,20.80
2013,07,12,15,57,20.80
2013,07,12,15,58,20.90
2013,07,12,15,59,21.00
2013,07,12,16,00,21.00
2013,07,12,16,01,21.00
2013,07,12,16,02,21.00
2013,07,12,16,03,21.00
2013,07,12,16,04,21.10
2013,07,12,16,05,21.10
2013,07,12,16,06,21.20
2013,07,12,16,07,21.30
2013,07,12,16,08,21.30
2013,07,12,16,09,21.20
2013,07,12,16,10,21.20
2013,07,12,16,11,21.30
2013,07,12,16,12,21.30
2013,07,12,16,13,21.30
2013,07,12,16,14,21.30
2013,07,12,16,15,21.30
2013,07,12,16,16,21.30
2013,07,12,16,17,21.40
2013,07,12,16,18,21.40
2013,07,12,16,19,21.50
2013,07,12,16,20,21.50
2013,07,12,16,21,21.50
2013,07,12,16,22,21.60
2013,07,12,16,23,21.60
2013,07,12,16,24,21.60
2013,07,12,16,25,21.50
2013,07,12,16,26,21.50
2013,07,12,16,27,21.60
2013,07,12,16,28,21.60
2013,07,12,16,29,21.60
2013,07,12,16,30,21.70
2013,07,12,16,31,21.60
2013,07,12,16,32,21.40
2013,07,12,16,33,21.40
2013,07,12,16,34,21.30
2013,07,12,16,35,21.20
2013,07,12,16,36,21.20
2013,07,12,16,37,21.10
2013,07,12,16,38,21.10
2013,07,12,16,39,21.00
2013,07,12,16,40,21.00
2013,07,12,16,41,21.10
2013,07,12,16,42,21.10
2013,07,12,16,43,21.00
2013,07,12,16,44,21.00
2013,07,12,16,45,20.90
2013,07,12,16,46,20.90
2013,07,12,16,47,20.90
2013,07,12,16,48,20.90
2013,07,12,16,49,20.90
2013,07,12,16,50,20.90
2013,07,12,16,51,20.90
2013,07,12,16,52,21.00
2013,07,12,16,53,21.00
2013,07,12,16,54,21.00
2013,07,12,16,55,21.00
2013,07,12,16,56,21.10
2013,07,12,16,57,21.10
2013,07,12,16,58,21.20
2013,07,12,16,59,21.30
2013,07,12,17,00,21.30
2013,07,12,17,01,21.30
2013,07,12,17,02,21.30
2013,07,12,17,03,21.40
2013,07,12,17,04,21.40
2013,07,12,17,05,21.40
2013,07,12,17,06,21.50
2013,07,12,17,07,21.50
2013,07,12,17,08,21.60
2013,07,12,17,09,21.60
2013,07,12,17,10,21.60
2013,07,12,17,11,21.40
2013,07,12,17,12,21.30
2013,07,12,17,13,21.20
2013,07,12,17,14,21.20
2013,07,12,17,15,21.20
2013,07,12,17,16,21.20
2013,07,12,17,17,21.20
2013,07,12,17,18,21.10
2013,07,12,17,19,21.10